This is the latest recevied weather packets stored in our database for station/object KR4BRU. If no packets are shown the sender has not sent any weather packets the latest 10 day(s).
| Time | Temp. | Humidity | Pressure | Rain* | Wind** | Luminosity | Snow |
|---|---|---|---|---|---|---|---|
| 1777834842 | 20.56° C | 31% | 1016 hPa | 0 mm | - | 941 W/m² | - |
| 1777834238 | 20° C | 33% | 1016.1 hPa | 0 mm | - | 952 W/m² | - |
| 1777833637 | 20° C | 33% | 1016.2 hPa | 0 mm | - | 967 W/m² | - |
| 1777833037 | 18.89° C | 33% | 1016.6 hPa | 0 mm | - | 974 W/m² | - |
| 1777832433 | 20° C | 33% | 1016.7 hPa | 0 mm | - | 978 W/m² | - |
| 1777831832 | 20.56° C | 31% | 1016.7 hPa | 0 mm | - | 988 W/m² | - |
| 1777831226 | 19.44° C | 32% | 1016.7 hPa | 0 mm | - | 991 W/m² | - |
| 1777830626 | 20° C | 31% | 1016.9 hPa | 0 mm | - | 995 W/m² | - |
| 1777830026 | 20° C | 33% | 1017.4 hPa | 0 mm | - | 997 W/m² | - |
| 1777829423 | 20° C | 30% | 1017.4 hPa | 0 mm | - | 996 W/m² | - |
| 1777828824 | 18.33° C | 35% | 1017.6 hPa | 0 mm | - | 993 W/m² | - |
| 1777828218 | 20.56° C | 30% | 1017.7 hPa | 0 mm | - | 984 W/m² | - |
| 1777827617 | 20° C | 31% | 1017.6 hPa | 0 mm | - | 982 W/m² | - |
| 1777827016 | 19.44° C | 31% | 1018 hPa | 0 mm | - | 976 W/m² | - |
| 1777826416 | 19.44° C | 30% | 1018.1 hPa | 0 mm | - | 882 W/m² | - |
| 1777825816 | 19.44° C | 32% | 1018 hPa | 0 mm | - | 951 W/m² | - |
| 1777825211 | 20° C | 33% | 1018.4 hPa | 0 mm | - | 939 W/m² | - |
| 1777824610 | 18.33° C | 36% | 1018.5 hPa | 0 mm | - | 923 W/m² | - |
| 1777824009 | 18.33° C | 37% | 1018.3 hPa | 0 mm | - | 903 W/m² | - |
| 1777823408 | 18.33° C | 34% | 1018.4 hPa | 0 mm | - | 880 W/m² | - |
| 1777822803 | 18.33° C | 35% | 1018.6 hPa | 0 mm | - | 854 W/m² | - |
| 1777822198 | 18.89° C | 34% | 1018.7 hPa | 0 mm | - | 833 W/m² | - |
| 1777821593 | 16.67° C | 39% | 1018.8 hPa | 0 mm | - | 802 W/m² | - |
| 1777820988 | 18.89° C | 38% | 1018.6 hPa | 0 mm | - | 770 W/m² | - |
| 1777820386 | 17.78° C | 40% | 1018.7 hPa | 0 mm | - | 743 W/m² | - |
* Rain latest hour (hover to see other rain measurements)
** Current wind speed in m/s (hover to see current wind gust speed)